This demonstration page uses our WeatherBlox Daily Observations layout. Learn more.

Left ArrowRight Arrow

Hourly Observations for December 3, 2018

Temp ( °F °C ) Dew Point ( °F °C ) Humidity (%) Winds ( mph kmh ) Pressure ( in mb ) Visibility ( mi km ) Precip ( " mm )
12:40 am 00:40 Cloudy with Mist and Fog 54 12 54 12 100 100 SW 8 13 29.59 1002 5 8 0.00 0.00
12:51 am 00:51 Cloudy with Mist and Fog 54 12.2 53 11.7 97 97 SSW 7 11 29.58 1002 5 8 0.00 0.00
1:51 am 01:51 Cloudy with Mist and Fog 54 12.2 52 11.1 93 93 SW 6 9 29.57 1002 5 8 0.00 0.00
2:51 am 02:51 Cloudy with Mist and Fog 54 12.2 53 11.7 97 97 WSW 6 9 29.57 1002 5 8 0.00 0.00
3:51 am 03:51 Cloudy with Mist and Fog 54 12.2 53 11.7 97 97 WSW 6 9 29.57 1001 4 6 0.00 0.00
4:51 am 04:51 Cloudy with Mist and Fog 54 12.2 53 11.7 97 97 WSW 6 9 29.57 1001 4 6 0.00 0.00
6:51 am 06:51 Partly Cloudy 50 10 49 9.4 96 96 S 6 9 29.58 1002 10 16 0.00 0.00
7:51 am 07:51 Sunny 50 10 47 8.3 89 89 SSW 5 7 29.61 1003 10 16 0.00 0.00
8:51 am 08:51 Sunny 53 11.7 45 7.2 74 74 W 8 13 29.62 1003 10 16 0.00 0.00
9:51 am 09:51 Sunny 54 12.2 44 6.7 69 69 W 9 15 29.64 1004 10 16 0.00 0.00
10:51 am 10:51 Cloudy 54 12.2 42 5.6 64 64 WNW 10 17 29.64 1004 10 16 0.00 0.00
11:51 am 11:51 Cloudy 54 12.2 37 2.8 53 53 W 18 30 29.65 1004 10 16 0.00 0.00
12:51 pm 12:51 Sunny 54 12.2 36 2.2 51 51 W 18 30 29.63 1004 10 16 0.00 0.00
1:51 pm 13:51 Cloudy 54 12.2 36 2.2 51 51 WNW 12 19 29.63 1003 10 16 0.00 0.00
2:51 pm 14:51 Cloudy 53 11.7 35 1.7 51 51 W 10 17 29.63 1004 10 16 0.00 0.00
3:51 pm 15:51 Cloudy 52 11.1 35 1.7 53 53 W 12 19 29.66 1004 10 16 0.00 0.00
4:51 pm 16:51 Mostly Cloudy 50 10 35 1.7 57 57 W 8 13 29.67 1005 10 16 0.00 0.00
5:51 pm 17:51 Cloudy 50 10 35 1.7 57 57 WSW 7 11 29.70 1006 10 16 0.00 0.00
6:51 pm 18:51 Partly Cloudy 49 9.4 35 1.7 59 59 WSW 9 15 29.72 1006 10 16 0.00 0.00
7:51 pm 19:51 Partly Cloudy 47 8.3 35 1.7 63 63 WSW 7 11 29.72 1007 10 16 0.00 0.00
8:51 pm 20:51 Partly Cloudy 47 8.3 35 1.7 63 63 W 9 15 29.72 1006 10 16 0.00 0.00
9:51 pm 21:51 Mostly Clear 46 7.8 35 1.7 66 66 W 8 13 29.72 1006 10 16 0.00 0.00
10:51 pm 22:51 Clear 44 6.7 34 1.1 68 68 WNW 8 13 29.72 1006 10 16 0.00 0.00
11:51 pm 23:51 Cloudy 44 6.7 35 1.7 71 71 NNW 14 22 29.73 1007 10 16 0.00 0.00

Powered by Vaisala Xweather